Weather History for Atlantic City, NJ

Change the Weather History Date:

Friday, December 28, 2012

  Actual Average Record
Temperature  
Mean Temperature 35 °F 34 °F  
Max Temperature 43 °F 43 °F 69 °F (2008)
Min Temperature 26 °F 26 °F 9 °F (2004)
Degree Days  
Heating Degree Days 30 31  
Month to date heating degree days 590 769  
Since 1 July heating degree days 1556 1676  
Cooling Degree Days 0 0  
Month to date cooling degree days 0 0  
Year to date cooling degree days 1218 1055  
Moisture  
Dew Point 23 °F    
Average Humidity 62    
Maximum Humidity 78    
Minimum Humidity 46    
Precipitation  
Precipitation 0.00 in 0.11 in 2.52 in (1922)
Month to date precipitation 6.90 3.38  
Year to date precipitation 48.35 41.44  
Snow  
Snow 0.00 in 0.10 in 1.50 in (1993)
Month to date snowfall T 3.3  
Since 1 July snowfall 2.5 3.5  
Snow Depth 0.00 in    
Sea Level Pressure  
Sea Level Pressure 30.05 in    
Wind  
Wind Speed 8 mph (NW)    
Max Wind Speed 22 mph    
Max Gust Speed 29 mph    
Visibility 10 miles    
Events      
T = Trace of Precipitation, MM = Missing Value Source: NWS Daily Summary

Daily Weather History Graph

Daily Weather History Graph

Search for Another Location

Airport:

Trip Planner

Search our weather history database for the weather conditions in past years. The results will help you decide how hot, cold, wet, or windy it might be!

Date:

Astronomy

Dec. 28, 2012 Rise Set
Actual Time 7:17 AM EST 4:42 PM EST
Civil Twilight 6:47 AM EST 5:12 PM EST
Nautical Twilight 6:13 AM EST 5:46 PM EST
Astronomical Twilight 5:41 AM EST 6:19 PM EST
Moon 5:16 PM EST (12/28) 7:10 AM EST (12/28)
Length of Visible Light 10h 25m
Length of Day
9h 24m
Full, 100% of the Moon is Illuminated
Dec 28
Full
Jan 4
Last Quarter
Jan 11
New
Jan 18
First Quarter
Jan 26
Full

Hourly Weather History & Observations

Time (EST) Temp. Windchill Dew Point Humidity Pressure Visibility Wind Dir Wind Speed Gust Speed Precip Events Conditions
12:54 AM 35.1 °F 24.1 °F 21.9 °F 59% 29.93 in 10.0 mi WNW 19.6 mph 25.3 mph N/A   Overcast
1:54 AM 34.0 °F 23.8 °F 21.9 °F 61% 29.95 in 10.0 mi WNW 16.1 mph - N/A   Overcast
2:54 AM 34.0 °F 22.4 °F 21.9 °F 61% 29.97 in 10.0 mi NW 20.7 mph 25.3 mph N/A   Overcast
3:54 AM 33.1 °F 23.4 °F 21.0 °F 61% 29.98 in 10.0 mi NW 13.8 mph 24.2 mph N/A   Mostly Cloudy
4:54 AM 32.0 °F 23.0 °F 21.9 °F 66% 30.00 in 10.0 mi NW 11.5 mph - N/A   Partly Cloudy
5:54 AM 30.9 °F 23.5 °F 21.9 °F 69% 30.03 in 10.0 mi WNW 8.1 mph - N/A   Clear
6:54 AM 28.0 °F 20.8 °F 19.9 °F 72% 30.05 in 10.0 mi NNW 6.9 mph - N/A   Clear
7:54 AM 30.0 °F 22.4 °F 21.9 °F 72% 30.06 in 10.0 mi NW 8.1 mph - N/A   Clear
8:54 AM 33.1 °F 24.4 °F 21.9 °F 64% 30.09 in 10.0 mi NNW 11.5 mph - N/A   Clear
9:54 AM 35.1 °F 25.2 °F 21.9 °F 59% 30.10 in 10.0 mi NW 16.1 mph - N/A   Clear
10:54 AM 37.0 °F 29.3 °F 21.9 °F 54% 30.10 in 10.0 mi NNW 11.5 mph - N/A   Clear
11:54 AM 37.9 °F 30.5 °F 23.0 °F 55% 30.08 in 10.0 mi NW 11.5 mph - N/A   Clear
12:54 PM 39.9 °F 33.4 °F 24.1 °F 53% 30.06 in 10.0 mi WNW 10.4 mph - N/A   Clear
1:54 PM 41.0 °F 35.2 °F 23.0 °F 49% 30.06 in 10.0 mi West 9.2 mph - N/A   Clear
2:54 PM 42.1 °F 36.6 °F 24.1 °F 49% 30.07 in 10.0 mi NW 9.2 mph - N/A   Clear
3:54 PM 42.1 °F 36.6 °F 24.1 °F 49% 30.06 in 10.0 mi NW 9.2 mph - N/A   Clear
4:54 PM 37.0 °F 31.6 °F 24.1 °F 59% 30.09 in 10.0 mi WNW 6.9 mph - N/A   Clear
5:54 PM 35.1 °F - 24.1 °F 64% 30.07 in 10.0 mi Calm Calm - N/A   Clear
6:54 PM 33.1 °F - 24.1 °F 70% 30.09 in 10.0 mi Calm Calm - N/A   Clear
7:54 PM 32.0 °F - 24.1 °F 73% 30.10 in 10.0 mi Calm Calm - N/A   Clear
8:54 PM 28.0 °F - 21.9 °F 78% 30.09 in 10.0 mi Calm Calm - N/A   Clear
9:54 PM 28.0 °F - 23.0 °F 81% 30.09 in 10.0 mi Calm Calm - N/A   Clear
10:54 PM 30.9 °F - 25.0 °F 79% 30.10 in 10.0 mi Calm Calm - N/A   Clear
11:54 PM 30.0 °F - 26.1 °F 85% 30.05 in 10.0 mi Calm Calm - N/A   Clear